FW6277 Weather Reports


Display with metric or nautical units.
time (UTC)temp
F
wind
direction
speed
MPH
gust
MPH
rain 1hr
in
rain 24hr
in
rain mn
in
humidity
%
barometer
mb
20200329153129 52 142 0.0 2.0 0.00 0.00 0.00 96 1014.9
20200329152531 52 142 0.0 2.0 0.00 0.00 0.00 96 1015.2
20200329152049 52 86 0.0 2.0 0.00 0.00 0.00 96 1014.8
20200329151559 52 0 0.0 1.0 0.00 0.00 0.00 96 1015.1
20200329151030 51 0 0.0 0.0 0.00 0.00 0.00 96 1015.1
20200329150532 51 0 0.0 1.0 0.00 0.00 0.00 96 1015.3
20200329150052 51 0 0.0 2.0 0.00 0.00 0.00 96 1015.5
20200329145530 51 37 0.0 2.0 0.00 0.00 0.00 96 1015.4
20200329145033 51 0 0.0 1.0 0.00 0.00 0.00 96 1015.2
20200329144622 51 0 0.0 1.0 0.00 0.00 0.00 96 1015.0
20200329144036 51 0 0.0 2.0 0.00 0.00 0.00 96 1015.0
20200329143531 51 0 0.0 2.0 0.00 0.00 0.00 96 1014.6
20200329143114 51 0 0.0 2.0 0.00 0.00 0.00 96 1014.7
20200329142532 51 0 0.0 2.0 0.00 0.00 0.00 97 1014.5
20200329142031 51 0 0.0 1.0 0.00 0.00 0.00 96 1014.5
20200329141607 51 0 0.0 1.0 0.00 0.00 0.00 97 1014.7
20200329141031 51 0 0.0 1.0 0.00 0.00 0.00 97 1014.7
20200329140532 50 0 0.0 1.0 0.00 0.00 0.00 97 1015.0
20200329140041 50 0 0.0 1.0 0.00 0.00 0.00 97 1015.0
20200329135532 50 0 0.0 1.0 0.00 0.00 0.00 97 1015.3
20200329135032 50 0 0.0 2.0 0.00 0.00 0.00 97 1015.1
20200329134650 50 0 0.0 3.0 0.00 0.00 0.00 97 1014.9
20200329134032 50 36 0.0 3.0 0.00 0.00 0.00 97 1015.1
20200329133532 50 0 0.0 1.0 0.00 0.00 0.00 97 1014.9
20200329133043 50 0 0.0 2.0 0.00 0.00 0.00 97 1014.5
20200329132558 50 0 0.0 2.0 0.00 0.00 0.00 96 1014.5
20200329132037 50 0 0.0 1.0 0.00 0.00 0.00 97 1014.6
20200329131547 50 0 0.0 1.0 0.00 0.00 0.00 97 1014.5
20200329131043 50 0 0.0 2.0 0.00 0.00 0.00 97 1014.4
20200329130533 50 0 0.0 2.0 0.00 0.00 0.00 97 1014.4
20200329130041 50 0 0.0 2.0 0.00 0.00 0.00 97 1014.7
20200329125531 50 0 0.0 2.0 0.00 0.07 0.00 97 1014.8
20200329125055 50 0 0.0 2.0 0.00 0.07 0.00 97 1014.5
20200329124630 50 51 0.0 2.0 0.00 0.07 0.00 97 1014.8
20200329124030 50 0 0.0 3.0 0.00 0.07 0.00 97 1014.9
20200329123555 50 51 0.0 3.0 0.00 0.07 0.00 97 1014.6
20200329123114 50 0 0.0 2.0 0.00 0.07 0.00 97 1014.3
20200329122537 50 0 0.0 2.0 0.00 0.07 0.00 97 1014.3
20200329122031 50 0 0.0 2.0 0.00 0.07 0.00 97 1014.3
20200329121608 50 0 0.0 3.0 0.00 0.07 0.00 97 1014.3
20200329121032 50 0 0.0 3.0 0.00 0.07 0.00 97 1014.3
20200329120529 50 28 0.0 2.0 0.00 0.07 0.00 97 1014.3
20200329120103 50 0 0.0 2.0 0.00 0.07 0.00 97 1014.3
20200329115531 50 0 0.0 1.0 0.00 0.10 0.00 97 1014.1
20200329115036 50 0 0.0 1.0 0.00 0.10 0.00 97 1013.9
20200329114605 50 0 0.0 2.0 0.00 0.10 0.00 97 1014.1
20200329114031 50 0 0.0 2.0 0.00 0.10 0.00 97 1013.9
20200329113532 50 0 0.0 2.0 0.00 0.10 0.00 97 1013.8
20200329113212 50 0 0.0 2.0 0.00 0.10 0.00 97 1013.7
20200329112530 50 0 0.0 1.0 0.00 0.10 0.00 97 1013.8
20200329112030 50 0 0.0 2.0 0.00 0.10 0.00 97 1013.7
20200329111610 50 0 0.0 2.0 0.00 0.10 0.00 97 1014.0
20200329111035 50 0 0.0 1.0 0.00 0.10 0.00 97 1013.8
20200329110532 50 0 0.0 1.0 0.00 0.10 0.00 97 1014.0
20200329110050 50 0 0.0 0.0 0.00 0.10 0.00 97 1014.0
20200329105530 50 0 0.0 0.0 0.00 0.22 0.00 97 1013.8
20200329105038 50 0 0.0 1.0 0.00 0.22 0.00 97 1013.6
20200329104619 50 0 0.0 1.0 0.00 0.22 0.00 97 1013.6
20200329104031 50 0 0.0 1.0 0.00 0.22 0.00 97 1013.5
20200329103529 50 0 0.0 3.0 0.00 0.22 0.00 97 1013.3
20200329103137 50 0 0.0 3.0 0.00 0.22 0.00 97 1013.0
20200329102538 50 44 0.0 1.0 0.00 0.22 0.00 97 1013.1
20200329102032 50 0 0.0 1.0 0.00 0.22 0.00 97 1013.1
20200329101555 50 0 0.0 1.0 0.00 0.22 0.00 97 1013.0
20200329101030 50 0 0.0 1.0 0.00 0.22 0.00 97 1012.9
20200329100532 50 0 0.0 1.0 0.00 0.22 0.00 97 1012.6
20200329100135 50 0 0.0 1.0 0.00 0.22 0.00 97 1012.4
20200329095539 50 0 0.0 1.0 0.00 0.32 0.00 97 1012.7
20200329095030 50 0 0.0 2.0 0.00 0.32 0.00 97 1012.7
20200329094554 50 0 0.0 2.0 0.00 0.32 0.00 97 1012.8
20200329094037 50 0 0.0 1.0 0.00 0.32 0.00 97 1012.7
20200329093546 50 0 0.0 2.0 0.00 0.32 0.00 97 1012.9
20200329093104 50 0 0.0 2.0 0.00 0.32 0.00 97 1013.0
20200329092531 50 0 0.0 1.0 0.00 0.32 0.00 97 1012.9
20200329092031 50 0 0.0 1.0 0.00 0.32 0.00 97 1013.0
20200329091617 50 0 0.0 1.0 0.00 0.32 0.00 97 1013.0
20200329091035 50 0 0.0 1.0 0.00 0.32 0.00 97 1013.0
20200329090529 50 0 0.0 2.0 0.00 0.32 0.00 97 1012.9
20200329090123 50 0 0.0 2.0 0.00 0.32 0.00 97 1013.2
20200329085530 50 0 0.0 1.0 0.00 0.33 0.00 97 1013.0
20200329085054 50 0 0.0 2.0 0.00 0.33 0.00 97 1013.0
20200329084542 50 0 0.0 2.0 0.00 0.33 0.00 97 1012.9
20200329084032 50 62 0.0 2.0 0.00 0.33 0.00 97 1013.1
20200329083532 50 0 0.0 2.0 0.00 0.33 0.00 97 1013.0
20200329083128 50 0 0.0 2.0 0.00 0.33 0.00 97 1013.3
20200329082530 49 62 0.0 2.0 0.00 0.33 0.00 97 1013.2
20200329082029 49 0 0.0 1.0 0.00 0.33 0.00 97 1013.2
20200329081631 49 0 0.0 3.0 0.00 0.33 0.00 97 1013.3
20200329081047 49 0 0.0 3.0 0.00 0.33 0.00 97 1013.3
20200329080533 49 23 0.0 3.0 0.00 0.33 0.00 97 1013.4
20200329080113 49 0 0.0 3.0 0.00 0.33 0.00 97 1013.5
20200329075543 49 0 0.0 2.0 0.00 0.41 0.00 97 1013.5
20200329075034 49 0 0.0 2.0 0.00 0.41 0.00 97 1013.4
20200329074621 49 0 0.0 2.0 0.00 0.41 0.00 97 1013.5
20200329074029 49 5 0.0 2.0 0.00 0.41 0.00 97 1013.6
20200329073532 49 0 0.0 4.0 0.00 0.41 0.00 97 1013.5
20200329073040 49 0 0.0 4.0 0.00 0.41 0.00 97 1013.5
20200329072529 49 13 0.0 5.0 0.00 0.41 0.00 97 1013.6
20200329072032 49 27 1.0 5.0 0.00 0.41 0.00 97 1014.0
20200329071533 49 0 0.0 3.0 0.00 0.41 0.00 97 1014.3
20200329071029 49 91 0.0 3.0 0.00 0.41 0.00 97 1014.2
20200329070532 49 0 0.0 1.0 0.00 0.41 0.00 97 1014.6
20200329070056 49 10 0.0 4.0 0.00 0.41 0.00 97 1014.9
20200329065530 49 10 0.0 4.0 0.00 0.42 0.00 97 1014.5
20200329065031 49 342 0.0 3.0 0.00 0.42 0.00 97 1014.6
20200329064538 49 0 0.0 3.0 0.00 0.42 0.00 97 1014.7
20200329064051 49 0 0.0 4.0 0.00 0.42 0.00 97 1014.7
20200329063528 49 349 0.0 4.0 0.00 0.42 0.00 97 1014.7
20200329063059 49 0 0.0 2.0 0.00 0.42 0.00 97 1014.2
20200329062530 49 0 0.0 2.0 0.00 0.42 0.00 97 1014.4
20200329062036 49 0 0.0 2.0 0.00 0.42 0.00 97 1014.6
20200329061528 49 333 0.0 2.0 0.00 0.42 0.00 97 1014.6
20200329061106 49 0 0.0 2.0 0.00 0.42 0.00 97 1014.5
20200329060529 49 0 0.0 2.0 0.00 0.42 0.00 97 1014.4
20200329060117 49 0 0.0 2.0 0.00 0.42 0.00 97 1014.3
20200329055528 49 315 0.0 1.0 0.00 0.42 0.00 97 1014.4
20200329055031 49 0 0.0 1.0 0.00 0.42 0.00 97 1014.4
20200329054616 49 0 0.0 1.0 0.00 0.42 0.00 97 1014.4
20200329054038 49 0 0.0 1.0 0.00 0.42 0.00 96 1014.1
20200329053534 49 0 0.0 1.0 0.00 0.42 0.00 97 1014.1
20200329053057 49 0 0.0 2.0 0.00 0.42 0.00 97 1014.2
20200329052532 49 0 0.0 2.0 0.00 0.42 0.00 97 1014.3
20200329052030 49 0 0.0 2.0 0.00 0.42 0.00 97 1014.2
20200329051609 49 11 0.0 1.0 0.00 0.42 0.00 97 1014.0
20200329051036 49 0 0.0 1.0 0.00 0.42 0.00 96 1014.0
20200329050531 49 0 0.0 1.0 0.00 0.42 0.00 96 1014.0
20200329050121 49 0 0.0 0.0 0.00 0.42 0.00 97 1013.9
20200329045528 49 0 0.0 0.0 0.00 0.42 0.00 96 1014.1
20200329045034 49 0 0.0 0.0 0.00 0.42 0.00 96 1014.1
20200329044536 49 0 0.0 1.0 0.00 0.42 0.00 96 1014.1
20200329044030 49 0 0.0 1.0 0.00 0.42 0.00 96 1013.9
20200329043535 49 0 0.0 1.0 0.00 0.42 0.00 96 1013.8
20200329043049 49 0 0.0 1.0 0.00 0.42 0.00 96 1013.9
20200329042528 49 0 0.0 1.0 0.00 0.42 0.00 96 1014.0
20200329042107 49 0 0.0 1.0 0.00 0.42 0.00 96 1014.1
20200329041646 49 0 0.0 1.0 0.00 0.42 0.00 96 1014.0
20200329041032 49 0 0.0 0.0 0.00 0.42 0.00 96 1013.9
20200329040559 49 0 0.0 0.0 0.00 0.42 0.00 96 1013.9
20200329040034 49 0 0.0 0.0 0.00 0.42 0.00 96 1014.0
20200329035534 49 0 0.0 0.0 0.00 0.42 0.42 96 1014.0
20200329035041 49 0 0.0 1.0 0.00 0.42 0.42 96 1014.0
20200329034620 49 0 0.0 1.0 0.00 0.42 0.42 96 1014.1
20200329034030 49 0 0.0 0.0 0.00 0.42 0.42 96 1014.0
20200329033533 49 0 0.0 1.0 0.00 0.42 0.42 96 1014.3
20200329033105 50 0 0.0 1.0 0.00 0.42 0.42 96 1014.3
20200329032530 50 0 0.0 2.0 0.00 0.42 0.42 96 1014.3
20200329032039 50 0 0.0 2.0 0.00 0.42 0.42 96 1014.4
20200329031625 50 0 0.0 2.0 0.00 0.42 0.42 96 1014.3
20200329031034 50 0 0.0 1.0 0.00 0.42 0.42 96 1014.3
20200329030542 50 0 0.0 1.0 0.00 0.42 0.42 96 1014.7
20200329030105 50 11 0.0 2.0 0.00 0.42 0.42 96 1014.6
20200329025536 50 11 0.0 3.0 0.00 0.42 0.42 96 1014.7
20200329025035 50 0 0.0 3.0 0.00 0.42 0.42 96 1014.7
20200329024600 50 0 0.0 1.0 0.00 0.42 0.42 96 1014.7
20200329024034 50 0 0.0 1.0 0.00 0.42 0.42 96 1014.9
20200329023534 50 0 0.0 3.0 0.00 0.42 0.42 96 1015.1
20200329023102 50 0 0.0 3.0 0.00 0.42 0.42 96 1015.0
20200329022540 50 0 0.0 2.0 0.00 0.42 0.42 96 1014.7
20200329022042 50 0 0.0 4.0 0.00 0.42 0.42 96 1014.9
20200329021530 50 0 0.0 4.0 0.00 0.42 0.42 96 1014.7
20200329021041 50 0 0.0 3.0 0.00 0.42 0.42 96 1014.8
20200329020528 50 32 0.0 3.0 0.00 0.42 0.42 96 1015.0
20200329020126 50 0 0.0 3.0 0.00 0.42 0.42 96 1015.0
20200329015535 50 0 1.0 3.0 0.00 0.42 0.42 96 1015.4
20200329015030 50 0 0.0 3.0 0.00 0.42 0.42 96 1015.6
20200329014618 50 0 0.0 3.0 0.00 0.42 0.42 96 1015.5
20200329014030 50 0 0.0 7.0 0.00 0.42 0.42 96 1015.9
20200329013537 50 0 0.0 7.0 0.00 0.42 0.42 96 1016.0
20200329013105 50 0 1.0 4.0 0.00 0.42 0.42 96 1016.1
20200329012535 50 14 0.0 4.0 0.00 0.42 0.42 96 1016.0
20200329012031 50 15 0.0 4.0 0.00 0.42 0.42 96 1016.1
20200329011629 50 22 0.0 4.0 0.00 0.42 0.42 96 1015.9
20200329011030 50 0 1.0 4.0 0.00 0.42 0.42 96 1016.2
20200329010531 50 5 0.0 4.0 0.00 0.42 0.42 96 1016.1
20200329010206 50 39 1.0 4.0 0.00 0.42 0.42 96 1016.2
20200329005534 50 0 1.0 4.0 0.00 0.42 0.42 96 1016.2
20200329005033 50 46 1.0 4.0 0.00 0.42 0.42 96 1016.3
20200329004642 50 28 0.0 3.0 0.00 0.42 0.42 96 1015.8
20200329004029 50 0 0.0 2.0 0.00 0.42 0.42 96 1015.5
20200329003535 50 0 0.0 2.0 0.00 0.42 0.42 96 1015.3
20200329003042 50 0 0.0 2.0 0.00 0.42 0.42 96 1015.4
20200329002538 50 0 0.0 2.0 0.00 0.42 0.42 96 1015.1
20200329002043 50 0 0.0 1.0 0.00 0.42 0.42 95 1015.0
20200329001556 50 0 0.0 2.0 0.00 0.42 0.42 95 1015.0
20200329001028 50 0 0.0 2.0 0.00 0.42 0.42 95 1015.0
20200329000529 50 360 0.0 1.0 0.00 0.42 0.42 95 1015.0
20200329000036 50 0 0.0 2.0 0.00 0.42 0.42 95 1014.9
20200328235530 50 0 0.0 2.0 0.00 0.42 0.42 95 1014.9
20200328235031 50 0 0.0 3.0 0.00 0.42 0.42 95 1014.9
20200328234615 50 0 0.0 3.0 0.00 0.42 0.42 95 1014.9
20200328234040 50 349 0.0 4.0 0.00 0.42 0.42 95 1014.9
20200328233537 50 0 0.0 4.0 0.00 0.42 0.42 94 1014.9
20200328233100 51 333 0.0 4.0 0.00 0.42 0.42 94 1014.6
20200328232530 51 9 0.0 3.0 0.00 0.42 0.42 94 1014.9
20200328232031 51 84 0.0 2.0 0.00 0.42 0.42 94 1014.5
20200328231604 51 0 0.0 2.0 0.00 0.42 0.42 93 1014.3
20200328231030 51 0 0.0 3.0 0.00 0.42 0.42 93 1014.3
20200328230531 51 0 0.0 5.0 0.00 0.42 0.42 93 1014.7
20200328230104 52 0 1.0 5.0 0.00 0.42 0.42 93 1014.9
20200328225530 52 35 1.0 4.0 0.00 0.42 0.42 93 1014.9
20200328225050 52 0 0.0 4.0 0.00 0.42 0.42 93 1014.8
20200328224602 52 18 0.0 3.0 0.00 0.42 0.42 93 1014.7
20200328224029 52 0 0.0 5.0 0.00 0.42 0.42 94 1014.6
20200328223536 52 0 0.0 5.0 0.00 0.42 0.42 93 1014.4
20200328223113 52 0 0.0 2.0 0.00 0.42 0.42 93 1014.2
20200328222530 52 0 0.0 2.0 0.00 0.42 0.42 93 1014.1
20200328222106 52 342 0.0 3.0 0.00 0.42 0.42 94 1014.2
20200328221600 52 0 1.0 3.0 0.00 0.42 0.42 94 1014.1
20200328221029 52 88 1.0 3.0 0.00 0.42 0.42 94 1014.0
20200328220533 52 0 1.0 5.0 0.00 0.42 0.42 93 1013.6
20200328220104 52 0 1.0 5.0 0.00 0.42 0.42 94 1013.8
20200328215535 52 0 0.0 3.0 0.00 0.42 0.42 94 1013.7
20200328215030 52 0 0.0 4.0 0.00 0.42 0.42 94 1013.6
20200328214653 52 312 0.0 4.0 0.00 0.42 0.42 93 1013.6
20200328214031 53 86 0.0 3.0 0.00 0.42 0.42 94 1013.4
20200328213530 53 44 0.0 4.0 0.00 0.42 0.42 94 1013.5
20200328213102 53 50 1.0 4.0 0.00 0.42 0.42 93 1013.5
20200328212534 53 0 0.0 4.0 0.00 0.42 0.42 93 1013.5
20200328212031 53 17 1.0 4.0 0.00 0.42 0.42 93 1013.7
20200328211602 53 0 0.0 2.0 0.00 0.42 0.42 93 1013.6
20200328211032 53 0 0.0 3.0 0.00 0.42 0.42 93 1013.4
20200328210534 53 0 0.0 3.0 0.00 0.42 0.42 92 1013.3
20200328210041 54 84 0.0 4.0 0.00 0.42 0.42 92 1013.2
20200328205531 54 352 1.0 4.0 0.00 0.42 0.42 92 1013.2
20200328205052 54 15 0.0 3.0 0.00 0.42 0.42 93 1013.1
20200328204547 54 26 0.0 5.0 0.00 0.42 0.42 93 1013.1
20200328204045 54 26 0.0 5.0 0.00 0.42 0.42 92 1013.1
20200328203536 54 348 1.0 4.0 0.00 0.42 0.42 92 1012.9
20200328203108 54 0 0.0 2.0 0.00 0.42 0.42 92 1012.9
20200328202541 55 360 0.0 2.0 0.00 0.42 0.42 92 1012.9
20200328202034 55 360 0.0 2.0 0.00 0.42 0.42 92 1013.1
20200328201542 55 352 0.0 2.0 0.00 0.42 0.42 91 1013.0
20200328201031 55 0 0.0 4.0 0.00 0.42 0.42 91 1012.9
20200328200539 55 0 1.0 4.0 0.00 0.42 0.42 91 1013.1
20200328200140 56 22 0.0 3.0 0.00 0.42 0.42 91 1013.1
20200328195531 56 0 0.0 2.0 0.00 0.42 0.42 91 1013.0
20200328195034 56 0 0.0 4.0 0.00 0.42 0.42 91 1013.3
20200328194612 56 0 0.0 4.0 0.00 0.42 0.42 90 1013.3
20200328194032 57 360 1.0 3.0 0.00 0.42 0.42 90 1013.2
20200328193548 57 0 0.0 3.0 0.00 0.42 0.42 90 1013.2
20200328193057 57 39 0.0 3.0 0.00 0.42 0.42 90 1013.3
20200328192534 57 0 0.0 4.0 0.00 0.42 0.42 90 1013.2
20200328192033 57 0 0.0 4.0 0.00 0.42 0.42 90 1013.4
20200328191614 56 30 0.0 2.0 0.00 0.42 0.42 90 1013.4
20200328191035 56 338 0.0 2.0 0.00 0.42 0.42 90 1013.6
20200328190531 56 0 0.0 2.0 0.00 0.42 0.42 90 1013.8
20200328190143 56 24 0.0 3.0 0.00 0.42 0.42 91 1014.0
20200328185659 56 18 0.0 3.0 0.00 0.42 0.42 90 1014.1
20200328185036 56 128 0.0 2.0 0.00 0.42 0.42 91 1014.1
20200328184535 56 0 0.0 4.0 0.00 0.42 0.42 92 1014.3
20200328184031 56 19 0.0 4.0 0.00 0.42 0.42 91 1014.4
20200328183530 56 0 0.0 2.0 0.00 0.42 0.42 92 1014.6
20200328183118 56 0 0.0 3.0 0.00 0.42 0.42 92 1014.5
20200328182533 56 76 0.0 3.0 0.00 0.42 0.42 91 1014.5
20200328182038 56 0 0.0 2.0 0.00 0.42 0.42 92 1014.5
20200328181546 56 33 0.0 2.0 0.00 0.42 0.42 92 1014.5
20200328181053 56 47 0.0 3.0 0.00 0.42 0.42 92 1014.8
20200328180532 56 0 0.0 3.0 0.00 0.42 0.42 92 1015.0
20200328180042 56 0 0.0 2.0 0.00 0.42 0.42 92 1015.1
20200328175530 56 0 0.0 2.0 0.00 0.42 0.42 93 1015.1
20200328175034 55 0 0.0 2.0 0.00 0.42 0.42 92 1015.2
20200328174627 55 0 0.0 2.0 0.00 0.42 0.42 92 1015.2
20200328174032 55 49 0.0 3.0 0.00 0.42 0.42 92 1015.3
20200328173529 55 0 1.0 3.0 0.00 0.42 0.42 93 1015.2
20200328173107 55 0 0.0 1.0 0.00 0.42 0.42 93 1015.0
20200328172536 55 0 0.0 1.0 0.00 0.42 0.42 94 1014.8
20200328172033 55 0 0.0 1.0 0.00 0.42 0.42 94 1014.9
20200328171543 55 0 0.0 2.0 0.00 0.42 0.42 94 1015.0
20200328171035 55 0 0.0 2.0 0.00 0.42 0.42 93 1015.0
20200328170534 55 0 0.0 1.0 0.00 0.42 0.42 94 1015.1
20200328170118 55 0 0.0 1.0 0.00 0.42 0.42 94 1015.1
20200328165530 55 0 0.0 1.0 0.00 0.42 0.42 93 1015.3
20200328165036 55 0 0.0 1.0 0.00 0.42 0.42 94 1015.4
20200328164631 55 0 0.0 2.0 0.00 0.42 0.42 94 1015.4
20200328164029 54 0 0.0 2.0 0.00 0.42 0.42 93 1015.5
20200328163530 54 285 0.0 1.0 0.00 0.42 0.42 94 1015.4
20200328163153 54 285 0.0 2.0 0.00 0.42 0.42 93 1015.3
20200328162542 54 0 0.0 2.0 0.00 0.42 0.42 93 1015.4
20200328162029 54 291 0.0 1.0 0.00 0.42 0.42 94 1015.4
20200328161620 54 0 0.0 2.0 0.00 0.42 0.42 94 1015.6
20200328161030 54 0 0.0 2.0 0.00 0.42 0.42 94 1015.6
20200328160530 54 0 0.0 2.0 0.00 0.42 0.42 93 1015.5
20200328160052 54 0 0.0 2.0 0.00 0.42 0.42 93 1015.4
20200328155530 54 0 0.0 2.0 0.00 0.42 0.42 93 1015.3
20200328155040 54 5 0.0 2.0 0.00 0.42 0.42 93 1015.2
20200328154551 54 0 0.0 2.0 0.00 0.42 0.42 93 1014.8
20200328154030 54 280 0.0 2.0 0.00 0.42 0.42 94 1014.5
20200328153531 54 313 0.0 3.0 0.00 0.42 0.42 94 1014.6